GW4767 Weather Reports


time (UTC)temp
F
wind
direction
speed
knots
gust
knots
rain 1hr
in
rain 24hr
in
rain mn
in
humidity
%
barometer
mb
20260504110548 98 310 0.0 0.0 0.00 0.00 0.00 55 1003.0
20260504100547 99 251 0.0 0.0 0.00 0.00 0.00 54 1003.0
20260504081547 100 312 1.7 1.7 0.00 0.00 0.00 55 1004.0
20260504081049 100 268 2.6 4.3 0.00 0.00 0.00 53 1005.0
20260504080546 101 300 0.0 0.0 0.00 0.00 0.00 52 1005.0
20260504050546 95 318 0.0 0.9 0.00 0.00 0.00 55 1007.0
20260504045547 93 315 0.0 0.0 0.00 0.00 0.00 57 1008.0
20260504045046 93 312 0.0 0.0 0.00 0.00 0.00 57 1008.0
20260504044547 93 309 0.0 0.0 0.00 0.00 0.00 56 1007.0
20260504044046 92 310 0.9 0.9 0.00 0.00 0.00 57 1008.0
20260504043547 92 302 0.9 0.9 0.00 0.00 0.00 58 1007.0
20260504043047 92 313 0.9 1.7 0.00 0.00 0.00 58 1008.0
20260504042548 91 302 2.6 4.3 0.00 0.00 0.00 58 1008.0
20260504042048 91 310 0.0 0.0 0.00 0.00 0.00 58 1008.0
20260504041547 91 310 0.0 0.0 0.00 0.00 0.00 58 1008.0
20260504041046 91 313 0.9 0.9 0.00 0.00 0.00 59 1008.0
20260504040547 90 306 0.9 1.7 0.00 0.00 0.00 57 1008.0
20260504040047 90 313 0.9 1.7 0.00 0.00 0.00 61 1007.0
20260504035546 90 313 0.9 0.9 0.00 0.00 0.00 60 1007.0
20260504035047 90 311 2.6 4.3 0.00 0.00 0.00 60 1007.0
20260504034547 90 308 1.7 2.6 0.00 0.00 0.00 60 1007.0
20260504034047 90 311 0.0 0.0 0.00 0.00 0.00 63 1008.0
20260504033547 89 313 0.9 1.7 0.00 0.00 0.00 62 1007.0
20260504033046 89 311 1.7 2.6 0.00 0.00 0.00 63 1007.0
20260504032547 88 309 0.0 0.9 0.00 0.00 0.00 64 1008.0
20260504032046 88 313 0.9 1.7 0.00 0.00 0.00 65 1007.0
20260504031547 87 308 1.7 2.6 0.00 0.00 0.00 65 1007.0
20260504031048 87 307 0.0 0.0 0.00 0.00 0.00 67 1007.0
20260504030546 87 311 0.0 0.9 0.00 0.00 0.00 66 1007.0
20260504030046 87 308 0.0 0.0 0.00 0.00 0.00 66 1007.0
20260504025546 88 310 0.9 0.9 0.00 0.00 0.00 65 1007.0
20260504025046 87 311 0.0 0.0 0.00 0.00 0.00 67 1007.0
20260504024547 86 308 1.7 2.6 0.00 0.00 0.00 66 1007.0
20260504024048 87 309 0.9 0.9 0.00 0.00 0.00 67 1007.0
20260504023547 86 313 0.0 0.0 0.00 0.00 0.00 69 1007.0
20260504023046 86 311 0.0 0.0 0.00 0.00 0.00 70 1007.0
20260504022546 85 315 0.0 0.9 0.00 0.00 0.00 71 1007.0
20260504022046 85 311 0.9 0.9 0.00 0.00 0.00 71 1007.0
20260504021546 85 309 0.0 0.9 0.00 0.00 0.00 71 1007.0
20260504021047 85 309 0.0 0.0 0.00 0.00 0.00 72 1007.0
20260504020546 84 309 0.0 0.0 0.00 0.00 0.00 73 1007.0
20260504020046 82 310 0.0 0.0 0.00 0.00 0.00 75 1007.0
20260504015546 82 309 0.0 0.0 0.00 0.00 0.00 76 1006.0
20260504015046 82 309 0.0 0.0 0.00 0.00 0.00 76 1006.0
20260504014546 81 310 0.0 0.0 0.00 0.00 0.00 78 1006.0
20260504014048 81 310 0.0 0.0 0.00 0.00 0.00 79 1006.0
20260504013546 80 310 0.0 0.0 0.00 0.00 0.00 79 1006.0
20260504013047 80 310 0.0 0.0 0.00 0.00 0.00 79 1006.0
20260504012547 79 310 0.0 0.0 0.00 0.00 0.00 79 1006.0
20260504012046 79 310 0.0 0.0 0.00 0.00 0.00 79 1006.0
20260504011546 79 311 0.0 0.0 0.00 0.00 0.00 80 1006.0
20260504011046 79 311 0.0 0.0 0.00 0.00 0.00 81 1006.0
20260504010547 79 311 0.0 0.0 0.00 0.00 0.00 80 1006.0
20260504010047 79 310 0.0 0.0 0.00 0.00 0.00 81 1005.0
20260504005547 79 310 0.0 0.0 0.00 0.00 0.00 80 1005.0
20260504005047 79 310 0.0 0.0 0.00 0.00 0.00 80 1005.0
20260504004546 79 310 0.0 0.0 0.00 0.00 0.00 80 1005.0
20260504004046 79 310 0.0 0.0 0.00 0.00 0.00 79 1005.0
20260504003547 79 310 0.0 0.0 0.00 0.00 0.00 79 1005.0
20260504003046 79 310 0.0 0.0 0.00 0.00 0.00 78 1005.0
20260504002546 79 310 0.0 0.0 0.00 0.00 0.00 77 1005.0
20260504002047 79 310 0.0 0.0 0.00 0.00 0.00 77 1005.0
20260504001546 80 310 0.0 0.0 0.00 0.00 0.00 76 1005.0
20260504001046 80 310 0.0 0.0 0.00 0.00 0.00 76 1005.0
20260504000546 80 310 0.0 0.0 0.00 0.00 0.00 75 1005.0
20260504000047 80 310 0.0 0.0 0.00 0.00 0.00 75 1005.0
20260503235547 80 309 0.0 0.0 0.00 0.00 0.00 76 1005.0
20260503235046 79 310 0.0 0.0 0.00 0.00 0.00 76 1005.0
20260503234546 79 310 0.0 0.0 0.00 0.00 0.00 76 1005.0
20260503234046 79 310 0.0 0.0 0.00 0.00 0.00 77 1005.0
20260503233546 80 311 0.0 0.0 0.00 0.00 0.00 77 1005.0
20260503233048 80 311 0.0 0.0 0.00 0.00 0.00 76 1005.0
20260503232547 80 311 0.0 0.0 0.00 0.00 0.00 76 1005.0
20260503232046 80 311 0.0 0.0 0.00 0.00 0.00 75 1004.0
20260503231547 80 311 0.0 0.0 0.00 0.00 0.00 75 1005.0
20260503231046 80 311 0.0 0.0 0.00 0.00 0.00 75 1005.0
20260503230546 80 310 0.0 0.0 0.00 0.00 0.00 74 1005.0
20260503230046 80 310 0.0 0.0 0.00 0.00 0.00 73 1004.0
20260503225547 81 310 0.0 0.0 0.00 0.00 0.00 73 1004.0
20260503225048 81 310 0.0 0.0 0.00 0.00 0.00 73 1004.0
20260503224546 81 310 0.0 0.0 0.00 0.00 0.00 72 1004.0
20260503224046 81 310 0.0 0.0 0.00 0.00 0.00 72 1004.0
20260503223546 81 309 0.0 0.0 0.00 0.00 0.00 72 1004.0
20260503223048 81 309 0.0 0.0 0.00 0.00 0.00 73 1004.0
20260503222546 80 309 0.0 0.0 0.00 0.00 0.00 73 1004.0
20260503222046 80 309 0.0 0.0 0.00 0.00 0.00 76 1004.0
20260503221547 80 310 0.0 0.0 0.00 0.00 0.00 79 1004.0
20260503221047 80 311 0.0 0.0 0.00 0.00 0.00 80 1004.0
20260503220546 80 311 0.0 0.9 0.00 0.00 0.00 80 1004.0
20260503220046 81 311 0.9 1.7 0.00 0.00 0.00 81 1004.0
20260503215546 81 310 0.0 0.0 0.00 0.00 0.00 81 1004.0
20260503215046 81 310 0.0 0.9 0.00 0.00 0.00 81 1004.0
20260503214547 82 311 0.0 0.9 0.00 0.00 0.00 82 1004.0
20260503214046 83 310 0.0 0.0 0.00 0.00 0.00 84 1004.0
20260503213546 84 310 0.0 0.0 0.00 0.00 0.00 85 1004.0
20260503213046 84 310 0.0 0.9 0.00 0.00 0.00 85 1004.0
20260503212547 84 310 0.0 0.0 0.00 0.00 0.00 85 1004.0
20260503212046 84 309 0.0 0.0 0.00 0.00 0.00 85 1004.0
20260503211546 84 308 0.0 0.0 0.00 0.00 0.00 85 1004.0
20260503211046 84 304 0.0 0.0 0.00 0.00 0.00 85 1005.0
20260503210547 84 309 0.0 0.0 0.00 0.00 0.00 85 1004.0
20260503210048 84 308 0.0 0.0 0.00 0.00 0.00 85 1005.0
20260503205548 84 308 0.0 0.0 0.00 0.00 0.00 85 1004.0
20260503205046 84 309 0.0 0.0 0.00 0.00 0.00 85 1005.0
20260503204547 84 310 0.0 0.0 0.00 0.00 0.00 85 1005.0
20260503204047 84 310 0.0 0.0 0.00 0.00 0.00 85 1005.0
20260503203546 84 308 0.0 0.0 0.00 0.00 0.00 85 1005.0
20260503203046 84 306 0.9 0.9 0.00 0.00 0.00 85 1005.0
20260503202546 84 307 0.0 0.0 0.00 0.00 0.00 85 1005.0
20260503202046 84 308 0.0 0.9 0.00 0.00 0.00 85 1006.0
20260503201546 84 309 0.0 0.0 0.00 0.00 0.00 85 1006.0
20260503201047 84 303 0.9 0.9 0.00 0.00 0.00 85 1006.0
20260503200547 84 307 0.0 0.0 0.00 0.00 0.00 85 1006.0
20260503200047 84 307 0.0 0.0 0.00 0.00 0.00 85 1006.0
20260503195546 84 308 0.0 0.0 0.00 0.00 0.00 85 1006.0
20260503195046 84 309 0.0 0.0 0.00 0.00 0.00 84 1006.0
20260503194546 84 305 0.9 0.9 0.00 0.00 0.00 84 1006.0
20260503194046 84 305 0.0 0.9 0.00 0.00 0.00 84 1006.0
20260503193547 84 309 0.0 0.0 0.00 0.00 0.00 84 1006.0
20260503193047 85 307 0.9 0.9 0.00 0.00 0.00 84 1006.0
20260503192546 85 309 0.0 0.0 0.00 0.00 0.00 84 1006.0
20260503192046 85 309 0.0 0.0 0.00 0.00 0.00 84 1007.0
20260503191546 85 309 0.0 0.0 0.00 0.00 0.00 84 1007.0
20260503191046 85 310 0.0 0.0 0.00 0.00 0.00 84 1007.0
20260503190547 85 310 0.0 0.0 0.00 0.00 0.00 84 1007.0
20260503190048 85 308 0.0 0.0 0.00 0.00 0.00 85 1007.0
20260503185546 85 310 0.0 0.0 0.00 0.00 0.00 85 1007.0
20260503185047 86 309 0.0 0.0 0.00 0.00 0.00 85 1007.0
20260503184546 86 310 0.0 0.0 0.00 0.00 0.00 84 1007.0
20260503184046 86 310 0.0 0.0 0.00 0.00 0.00 84 1007.0
20260503183546 85 309 0.0 0.0 0.00 0.00 0.00 84 1007.0
20260503183047 85 309 0.0 0.0 0.00 0.00 0.00 85 1007.0
20260503182547 85 309 0.0 0.0 0.00 0.00 0.00 85 1007.0
20260503182046 85 310 0.0 0.0 0.00 0.00 0.00 85 1007.0
20260503181547 85 310 0.0 0.0 0.00 0.00 0.00 85 1008.0
20260503181047 85 310 0.0 0.0 0.00 0.00 0.00 85 1007.0
20260503180547 85 310 0.0 0.0 0.00 0.00 0.00 85 1007.0
20260503180047 85 310 0.0 0.0 0.00 0.00 0.00 84 1007.0
20260503175546 85 310 0.0 0.0 0.00 0.00 0.00 84 1008.0
20260503175046 85 310 0.0 0.0 0.00 0.00 0.00 84 1008.0
20260503174546 86 310 0.0 0.0 0.00 0.00 0.00 84 1007.0
20260503174047 86 310 0.0 0.0 0.00 0.00 0.00 84 1007.0
20260503173546 86 310 0.0 0.0 0.00 0.00 0.00 83 1007.0
20260503173046 86 310 0.0 0.0 0.00 0.00 0.00 83 1007.0
20260503172546 86 310 0.0 0.0 0.00 0.00 0.00 83 1007.0
20260503172048 86 310 0.0 0.0 0.00 0.00 0.00 83 1007.0
20260503171108 86 309 0.0 0.9 0.00 0.00 0.00 82 1007.0
20260503170547 86 310 0.0 0.0 0.00 0.00 0.00 82 1007.0
20260503150546 87 283 3.5 4.3 0.00 0.00 0.00 81 1005.0
20260503131047 89 299 2.6 2.6 0.00 0.00 0.00 73 1003.0
20260503130546 89 184 2.6 6.1 0.00 0.00 0.00 72 1003.0